[[{"header":{"parameterUnit":"m.s-1","parameterCategory":1,"la1":30.2991,"la2":30.254,"lo1":-89.0895,"lo2":-89.0444,"dy":0.0017,"dx":0.0017,"nx":28,"ny":28,"refTime":"2024-08-28T03:00:00:Z","depth":0,"parameterNumber":2,"parameterNumberName":"U-component_of_WINDS"},"data":[0,0,0,0,0,0,0,0,0,0,0,0,0,0,0,0,0,0,0,0,0,0,0,0,0,0,0,0,0,0,0,0,0,0,0,0,0,0,0,0,0,0,0,0,0,0,0,0,0,0,0,0,0,0,0,0,0,0,-2.8085,-2.8085,0,-2.8123,-2.8123,-2.8124,-2.8125,-2.8124,-2.8124,-2.8123,-2.816,-2.8161,-2.8163,0,0,0,0,0,0,0,0,0,0,0,0,0,-2.8011,-2.8012,-2.8085,-2.8085,-2.8086,-2.8123,-2.8123,-2.8124,-2.8125,-2.8124,-2.8124,-2.8123,-2.8159,-2.8161,-2.8163,0,0,0,0,0,0,0,0,0,0,0,0,0,-2.8045,-2.8013,-2.8085,-2.8091,-2.8092,-2.8123,-2.8123,-2.8124,-2.8125,-2.8124,-2.8124,-2.8123,-2.8159,-2.8161,-2.8163,-2.8189,0,0,-2.8169,-2.817,0,0,0,0,0,0,0,0,-2.8043,-2.8048,-2.809,-2.8091,-2.8092,-2.8118,-2.8111,-2.8146,-2.8125,-2.8112,-2.8123,-2.8123,-2.8146,-2.8149,-2.8158,-2.8191,-2.8193,-2.8169,-2.8171,-2.8172,-2.8172,0,0,0,0,0,0,0,-2.8041,-2.8046,-2.81,-2.809,-2.8091,-2.8091,-2.8095,-2.8117,-2.8133,-2.8113,-2.8114,-2.8118,-2.8147,-2.8156,-2.8159,-2.8193,-2.8169,-2.8171,-2.8173,-2.8173,-2.825,-2.825,0,0,0,0,0,0,-2.8038,-2.8044,-2.8099,-2.8101,-2.8065,-2.8093,-2.8097,-2.811,-2.8132,-2.8135,-2.8119,-2.8118,-2.8153,-2.8156,-2.816,-2.8192,-2.8172,-2.8174,-2.8175,-2.8249,-2.825,-2.8251,0,0,0,0,0,0,-2.8036,-2.8043,-2.8097,-2.8073,-2.808,-2.8095,-2.8109,-2.8112,-2.8121,-2.8136,-2.8139,-2.8125,-2.8152,-2.8157,-2.8182,-2.8194,-2.8174,-2.8176,-2.8248,-2.8249,-2.825,-2.8257,0,0,0,0,0,0,-2.8034,-2.8042,-2.8053,-2.8073,-2.8081,-2.8119,-2.811,-2.8113,-2.8125,-2.8124,-2.8143,-2.8146,-2.8152,-2.8179,-2.8184,-2.8196,-2.8178,-2.8247,-2.8248,-2.825,-2.8256,-2.8258,-2.826,0,0,0,0,0,-2.8031,-2.8053,-2.8053,-2.806,-2.8095,-2.812,-2.8124,-2.8132,-2.8126,-2.8136,-2.8146,-2.8145,-2.8192,-2.8182,-2.8188,-2.82,-2.8246,-2.8248,-2.825,-2.8255,-2.8258,-2.826,0,0,0,0,0,0,-2.8033,-2.8056,-2.8056,-2.8085,-2.8101,-2.812,-2.8134,-2.8135,-2.8152,-2.8151,-2.8158,-2.8163,-2.8187,-2.8196,-2.8185,-2.8227,-2.8218,-2.8221,-2.822,-2.8223,-2.8225,-2.8222,-2.818,0,0,0,0,0,-2.8037,-2.8056,-2.8074,-2.8098,-2.8106,-2.8118,-2.813,-2.8134,-2.815,-2.8156,-2.8168,-2.8183,-2.8201,-2.8213,-2.823,-2.8257,-2.8261,-2.8269,-2.8271,-2.8273,-2.8275,-2.829,-2.8293,-2.8256,-2.8256,-2.8256,0,0,-2.8044,-2.8059,-2.8071,-2.8099,-2.8111,-2.813,-2.8124,-2.8144,-2.8158,-2.8159,-2.8184,-2.8193,-2.821,-2.8236,-2.8248,-2.8244,-2.8286,-2.8275,-2.8276,-2.8278,-2.8292,-2.8295,-2.8298,-2.8257,-2.8257,-2.8257,0,0,-2.8068,-2.8082,-2.8102,-2.8115,-2.8135,-2.8143,-2.8148,-2.8167,-2.8174,-2.8198,-2.82,-2.8216,-2.8247,-2.8259,-2.8269,-2.8297,-2.8296,-2.8302,-2.8314,-2.8328,-2.8331,-2.8333,-2.8343,-2.8346,-2.8305,-2.8305,-2.8305,0,-2.8075,-2.8104,-2.8113,-2.8133,-2.8145,-2.8148,-2.8169,-2.818,-2.8204,-2.8212,-2.8207,-2.8246,-2.8258,-2.8286,-2.8293,-2.8302,-2.8307,-2.83,-2.833,-2.8333,-2.8335,-2.8344,-2.8348,-2.8305,-2.8305,-2.8305,-2.8305,0,-2.8111,-2.8132,-2.8146,-2.817,-2.8183,-2.8203,-2.8214,-2.8227,-2.823,-2.8239,-2.8264,-2.8278,-2.8298,-2.8305,-2.8309,-2.8334,-2.8331,-2.8328,-2.832,-2.8339,-2.8347,-2.8351,-2.8306,-2.8306,-2.8306,-2.8306,0,0,-2.8137,-2.8165,-2.817,-2.818,-2.8202,-2.8217,-2.8237,-2.8258,-2.8268,-2.8284,-2.8301,-2.8327,-2.8324,-2.8336,-2.834,-2.8353,-2.8373,-2.8348,-2.8349,-2.8352,-2.8402,-2.8404,-2.8408,-2.8374,-2.8374,-2.8375,-2.84,0,-2.8162,-2.8199,-2.8207,-2.8239,-2.8257,-2.826,-2.8277,-2.8292,-2.83,-2.8316,-2.8325,-2.8344,-2.8339,-2.8346,-2.8359,-2.8368,-2.8383,-2.8367,-2.8388,-2.8389,-2.8383,-2.8412,-2.8414,-2.8437,-2.8404,-2.8404,-2.8405,0,-2.8197,-2.8215,-2.8248,-2.8267,-2.8275,-2.829,-2.8309,-2.8325,-2.8341,-2.8346,-2.8359,-2.8363,-2.8383,-2.8374,-2.8402,-2.839,-2.8399,-2.8405,-2.8406,-2.8408,-2.8397,-2.8414,-2.8445,-2.8448,-2.841,-2.841,-2.8409,0,-2.8212,-2.8244,-2.8267,-2.8276,-2.8299,-2.831,-2.8319,-2.8335,-2.8347,-2.8363,-2.8371,-2.8389,-2.8399,-2.8413,-2.8421,-2.8414,-2.8447,-2.8439,-2.8452,-2.8451,-2.8458,-2.8457,-2.849,-2.8465,-2.8465,-2.8465,-2.8465,0,-2.8239,-2.8259,-2.8274,-2.8289,-2.8311,-2.832,-2.8342,-2.8351,-2.8365,-2.8381,-2.8385,-2.8399,-2.8409,-2.8425,-2.8431,-2.8453,-2.8457,-2.8461,-2.8463,-2.8461,-2.846,-2.8466,-2.8465,-2.8466,-2.8466,-2.8466,-2.8465,0,-2.8259,-2.827,-2.8296,-2.8315,-2.8321,-2.8336,-2.8352,-2.8366,-2.8375,-2.8395,-2.84,-2.8413,-2.8432,-2.8441,-2.8465,-2.8469,-2.8493,-2.8493,-2.8487,-2.8488,-2.8499,-2.8498,-2.8537,-2.8542,-2.8514,-2.8514,-2.8515,0,-2.8276,-2.8291,-2.8312,-2.8323,-2.8334,-2.8352,-2.8363,-2.8373,-2.8385,-2.8404,-2.8415,-2.8435,-2.845,-2.848,-2.8491,-2.8509,-2.851,-2.8522,-2.8512,-2.851,-2.8509,-2.8508,-2.8509,-2.8524,-2.8524,-2.8524,-2.8524,0,-2.8304,-2.8309,-2.8326,-2.8345,-2.8359,-2.8375,-2.839,-2.8399,-2.841,-2.8423,-2.8443,-2.8455,-2.8479,-2.8498,-2.8516,-2.8525,-2.8526,-2.8528,-2.8531,-2.8529,-2.8525,-2.8527,-2.8491,-2.8526,-2.8526,-2.8526,-2.8526,-2.8526,-2.8323,-2.8336,-2.8353,-2.8372,-2.8384,-2.8398,-2.8412,-2.8422,-2.8439,-2.846,-2.8464,-2.8484,-2.8499,-2.8525,-2.8534,-2.855,-2.8547,-2.8553,-2.8554,-2.8555,-2.8555,-2.8523,-2.8553,-2.8553,-2.8553,-2.8553,-2.8553,0,-2.8351,-2.8361,-2.8379,-2.84,-2.8415,-2.8415,-2.8432,-2.8444,-2.8462,-2.8476,-2.8492,-2.8514,-2.8532,-2.8544,-2.8563,-2.8573,-2.8574,-2.8577,-2.8576,-2.8578,-2.8557,-2.8552,-2.8576,-2.8576,-2.8576,-2.8576,-2.8576,-2.8576,-2.8367,-2.839,-2.8396,-2.8425,-2.8436,-2.8456,-2.8466,-2.8478,-2.8489,-2.8514,-2.8529,-2.8537,-2.8551,-2.857,-2.8586,-2.8589,-2.8595,-2.8599,-2.8602,-2.8582,-2.8579,-2.8577,-2.8572,-2.86,-2.86,-2.8621,-2.8622,-2.8622]},{"header":{"parameterUnit":"m.s-1","parameterCategory":1,"la1":30.2991,"la2":30.254,"lo1":-89.0895,"lo2":-89.0444,"dy":0.0017,"dx":0.0017,"nx":28,"ny":28,"refTime":"2024-08-28T03:00:00:Z","depth":0,"parameterNumber":3,"parameterNumberName":"V-component_of_WINDS"},"data":[0,0,0,0,0,0,0,0,0,0,0,0,0,0,0,0,0,0,0,0,0,0,0,0,0,0,0,0,0,0,0,0,0,0,0,0,0,0,0,0,0,0,0,0,0,0,0,0,0,0,0,0,0,0,0,0,0,0,1.9072,1.9073,0,1.9162,1.9163,1.9164,1.9247,1.9248,1.9249,1.925,1.9336,1.9337,1.9339,0,0,0,0,0,0,0,0,0,0,0,0,0,1.8967,1.8969,1.9071,1.9073,1.9074,1.9161,1.9163,1.9164,1.9247,1.9248,1.9249,1.925,1.9336,1.9337,1.9339,0,0,0,0,0,0,0,0,0,0,0,0,0,1.903,1.8969,1.9071,1.9126,1.9132,1.9161,1.9163,1.9164,1.9246,1.9248,1.925,1.9251,1.9335,1.9337,1.9339,1.932,0,0,1.9345,1.9346,0,0,0,0,0,0,0,0,1.9026,1.9034,1.9117,1.9122,1.9129,1.9195,1.9158,1.9216,1.9246,1.9203,1.925,1.9252,1.9287,1.9293,1.9307,1.9324,1.9328,1.9345,1.9346,1.9347,1.9348,0,0,0,0,0,0,0,1.9022,1.903,1.9107,1.9118,1.9125,1.9144,1.9155,1.9169,1.9235,1.9207,1.9213,1.9223,1.9291,1.9305,1.9309,1.9329,1.9345,1.9347,1.9348,1.9349,1.9337,1.9336,0,0,0,0,0,0,1.901,1.9026,1.9104,1.911,1.9081,1.9145,1.9157,1.9172,1.9235,1.9246,1.9221,1.9226,1.93,1.9307,1.9313,1.9295,1.9347,1.9349,1.935,1.9338,1.9337,1.9335,0,0,0,0,0,0,1.9007,1.9016,1.9101,1.907,1.9082,1.9145,1.9161,1.9173,1.9187,1.9246,1.9258,1.9223,1.9302,1.931,1.9318,1.93,1.935,1.9352,1.934,1.9338,1.9336,1.926,0,0,0,0,0,0,1.9004,1.9015,1.9009,1.9069,1.9083,1.9106,1.916,1.9173,1.9191,1.9198,1.9251,1.9262,1.9304,1.9315,1.932,1.9303,1.9353,1.9342,1.9339,1.9337,1.9264,1.9255,1.9248,0,0,0,0,0,1.9,1.8982,1.9008,1.9017,1.9078,1.9104,1.9112,1.9163,1.9189,1.9183,1.9222,1.926,1.9301,1.9315,1.9322,1.9305,1.9344,1.934,1.9337,1.9268,1.9257,1.9248,0,0,0,0,0,0,1.8915,1.8991,1.9021,1.9022,1.9057,1.9118,1.9113,1.9149,1.9176,1.9181,1.9241,1.9252,1.9254,1.9281,1.9295,1.9291,1.9328,1.9325,1.9273,1.9263,1.9255,1.9248,1.9355,0,0,0,0,0,1.8897,1.8914,1.8979,1.8974,1.899,1.9048,1.9062,1.9098,1.9135,1.9149,1.9189,1.9222,1.9243,1.9255,1.9277,1.9269,1.9282,1.9261,1.9253,1.9246,1.9242,1.9241,1.9233,1.9324,1.9324,1.9324,0,0,1.8859,1.8903,1.8909,1.8958,1.8989,1.9004,1.906,1.9073,1.9084,1.9151,1.9162,1.9192,1.9233,1.9234,1.9236,1.9256,1.9221,1.9241,1.9235,1.9236,1.9237,1.9228,1.9221,1.9322,1.9322,1.9322,0,0,1.8798,1.8833,1.8833,1.8864,1.8911,1.895,1.895,1.9008,1.9031,1.9044,1.9094,1.9108,1.9142,1.917,1.9188,1.914,1.9176,1.9145,1.9101,1.9099,1.9092,1.9086,1.9069,1.9062,1.9142,1.9142,1.9142,0,1.8744,1.877,1.8828,1.8839,1.8859,1.8923,1.8923,1.895,1.9,1.9012,1.9035,1.908,1.9112,1.9121,1.9109,1.9122,1.9123,1.9139,1.9089,1.9083,1.9078,1.9062,1.9056,1.9138,1.9139,1.9139,1.9139,0,1.8702,1.8719,1.8714,1.8764,1.8784,1.8789,1.8847,1.8859,1.8894,1.8931,1.8943,1.8985,1.9017,1.9022,1.9055,1.9035,1.9047,1.9078,1.9116,1.9065,1.9051,1.9045,1.9132,1.9134,1.9135,1.9136,0,0,1.8587,1.8672,1.8668,1.8693,1.8751,1.8765,1.8773,1.8808,1.8817,1.8851,1.8859,1.8888,1.8918,1.8939,1.8976,1.8974,1.8934,1.9006,1.9008,1.8991,1.8915,1.889,1.8883,1.8959,1.8958,1.8958,1.8912,0,1.8534,1.8555,1.8609,1.8612,1.8629,1.8692,1.8699,1.8735,1.877,1.8788,1.8827,1.8846,1.8885,1.8898,1.8899,1.8938,1.8919,1.8943,1.8966,1.8966,1.8953,1.8875,1.8849,1.8804,1.8906,1.8906,1.8905,0,1.8475,1.8508,1.8514,1.8573,1.8582,1.8588,1.8625,1.8642,1.8684,1.871,1.8734,1.8777,1.8788,1.8825,1.8841,1.8856,1.8869,1.889,1.8889,1.8892,1.8931,1.8876,1.879,1.8783,1.8897,1.8898,1.8898,0,1.8391,1.8436,1.8446,1.8465,1.8534,1.8537,1.8565,1.861,1.8627,1.8658,1.8671,1.8702,1.8718,1.8741,1.8791,1.8813,1.8802,1.8842,1.8823,1.8821,1.8816,1.8815,1.8731,1.8825,1.8826,1.8826,1.8826,0,1.8326,1.8327,1.8409,1.8415,1.8419,1.848,1.8481,1.8515,1.8554,1.8567,1.8623,1.8633,1.8699,1.8717,1.8755,1.8763,1.877,1.8791,1.8801,1.8785,1.8783,1.8794,1.8798,1.8824,1.8824,1.8825,1.8825,0,1.8231,1.8286,1.8301,1.8367,1.8384,1.8383,1.8439,1.8446,1.8486,1.8502,1.8509,1.857,1.8594,1.8647,1.8684,1.8711,1.8709,1.8727,1.8695,1.8701,1.8679,1.868,1.8597,1.859,1.8689,1.8688,1.8687,0,1.8186,1.8189,1.8255,1.827,1.8297,1.8318,1.8337,1.8398,1.8416,1.8465,1.8467,1.8496,1.8523,1.8558,1.8605,1.8635,1.8654,1.8623,1.8658,1.8643,1.8653,1.8652,1.8653,1.8615,1.8613,1.8612,1.8611,0,1.8099,1.8127,1.8154,1.8191,1.8213,1.8244,1.8278,1.8286,1.8354,1.8371,1.8398,1.8419,1.8459,1.8487,1.8524,1.8553,1.8593,1.86,1.8597,1.8581,1.8562,1.8572,1.8673,1.8601,1.8602,1.8603,1.8604,1.8604,1.8028,1.8034,1.8083,1.8111,1.8144,1.8175,1.8186,1.8228,1.8252,1.8291,1.8326,1.8349,1.8393,1.8447,1.8473,1.8492,1.8512,1.8507,1.8506,1.8504,1.8497,1.856,1.8499,1.8499,1.85,1.85,1.85,0,1.7944,1.7979,1.8005,1.8052,1.8075,1.8114,1.8154,1.8169,1.8191,1.8229,1.8255,1.8286,1.8315,1.8365,1.8397,1.8403,1.8422,1.8409,1.8409,1.8415,1.8478,1.8477,1.8393,1.8393,1.8393,1.8393,1.8393,1.8393,1.7903,1.7916,1.795,1.7979,1.8015,1.804,1.806,1.8089,1.812,1.8153,1.8178,1.8212,1.8255,1.8291,1.8319,1.8333,1.8342,1.8323,1.8342,1.84,1.841,1.842,1.8419,1.8324,1.8324,1.8278,1.8278,1.8277]}]]